Flag for U.S.A. Weather past 2 weeks in Lowell, Massachusetts, U.S.A.

Now
13 °F

Clear.


Feels Like: 13 °F
Forecast: 12 / 29 °F
Wind: No wind

Location: Hanscom Field

Current Time: Mar 3, 2015 at 6:15:40 AM

Latest Report: Mar 3, 2015 at 4:56 AM


Visibility: 10 mi

Pressure: 30.40 "Hg

Humidity: 61%

Dew point: 2 °F

Location of LowellLocation

Historic Weather in Lowell — Graph

°F

Lowell temperature yesterday

Maximum temperature yesterday: 33 °F (at 11:56 AM)
Minimum temperature yesterday: 23 °F (at 3:56 AM)
Average temperature yesterday: 28 °F

Past Weeks' High & Low Weather Summary

 TemperatureHumidityPressure
High37 °F (Feb 22, 3:56 PM)100% (Feb 19, 5:56 AM)30.79 "Hg (Feb 19, 5:56 AM)
Low-13 °F (Feb 24, 5:56 AM)25% (Feb 27, 2:56 PM)29.53 "Hg (Feb 19, 1:04 PM)
Average17 °F61%30.15 "Hg
* Reported Feb 16 4:56 AM — Mar 3 4:56 AM, Lowell, Weather by CustomWeather, © 2015

Note: Actual official high and low records may vary slightly from our data, if they occured in-between our weather recording intervals... More about our weather records

Advertising

Lowell weather history for previous 24 hours

 ConditionsComfort  
Time TempWeatherWind HumidityBarometerVisibility
4:56 AM
Tue, Mar 3
13 °FClear.No wind61%30.40 "Hg10 mi
3:56 AM17 °FClear.7 mph54%30.37 "Hg10 mi
2:56 AM20 °FClear.6 mph45%30.35 "Hg10 mi
1:56 AM21 °FClear.10 mph43%30.34 "Hg10 mi
12:56 AM22 °FClear.14 mph44%30.33 "Hg10 mi
11:56 PM
Mon, Mar 2
24 °FClear.14 mph44%30.30 "Hg10 mi
10:56 PM25 °FMostly cloudy.9 mph63%30.26 "Hg10 mi
9:56 PM26 °FPassing clouds.17 mph46%30.22 "Hg10 mi
8:56 PM26 °FClear.10 mph46%30.18 "Hg10 mi
7:56 PM27 °FClear.10 mph55%30.18 "Hg10 mi
6:56 PM28 °FPassing clouds.16 mph61%30.16 "Hg10 mi
5:56 PM29 °FLight snow. Passing clouds.24 mph56%30.09 "Hg7 mi
4:56 PM31 °FOvercast.23 mph47%30.06 "Hg8 mi
3:56 PM32 °FPartly sunny.17 mph43%30.05 "Hg10 mi
2:56 PM33 °FPartly sunny.20 mph40%30.03 "Hg10 mi
1:56 PM33 °FOvercast.20 mph45%30.01 "Hg10 mi
12:56 PM33 °FOvercast.18 mph49%30.00 "Hg10 mi
11:56 AM33 °FMore clouds than sun.21 mph52%30.01 "Hg10 mi
10:56 AM32 °FOvercast.21 mph56%30.00 "Hg10 mi
9:56 AM32 °FPassing clouds.17 mph61%29.98 "Hg10 mi
8:56 AM30 °FPassing clouds.12 mph69%29.99 "Hg10 mi
7:56 AM28 °FOvercast.8 mph78%29.96 "Hg10 mi
6:56 AM25 °FOvercast.6 mph88%29.98 "Hg10 mi
Weather by CustomWeather, © 2015

See weather overviewHow to use our weather pages